Location: Orinda
(37.8771°N, 122.1797°W)
Time: 02:07:04
(UTC+00:00)

Cosmos 1953 - Pass Details

Date: 21 October 2019
Orbit: 538 x 559 km, 82.5° (Epoch: 14 November)

Event Time Altitude Azimuth Distance (km) Brightness Sun altitude
Rises 12:42:45 0° 349° (N) 2,728 5.8 -20.4°
Reaches altitude 10° 12:44:56 10° 346° (NNW) 1,827 4.8 -20.0°
Maximum altitude 12:48:55 63° 266° (W) 610 2.2 -19.2°
Drops below altitude 10° 12:52:50 10° 184° (S) 1,801 4.9 -18.5°
Sets 12:54:59 0° 181° (S) 2,685 5.8 -18.0°
